Weather History for Ukiah, CA

Change the Weather History Date:

Wednesday, August 6, 2014

  Actual Average Record
Temperature  
Mean Temperature 79 °F 74 °F  
Max Temperature 95 °F 93 °F 111 °F (1978)
Min Temperature 63 °F 54 °F 42 °F (1917)
Degree Days  
Heating Degree Days 0 0  
Month to date heating degree days 0  
Since 1 June heating degree days 33  
Since 1 July heating degree days 1  
Cooling Degree Days 14 9  
Month to date cooling degree days 54  
Year to date cooling degree days 497  
Since 1 June cooling degree days 445  
Growing Degree Days 30 (Base 50)    
Moisture  
Dew Point 56 °F    
Average Humidity 59    
Maximum Humidity 93    
Minimum Humidity 24    
Precipitation  
Precipitation T in 0.00 in 0.00 in (2015)
Month to date precipitation 0.01 0.00  
Year to date precipitation 16.64 23.42  
Since 1 July precipitation 0.01 0.04  
Snow  
Snow 0.00 in - - ()
Month to date snowfall 0.0  
Since 1 June snowfall 0.0  
Since 1 July snowfall 0.0  
Snow Depth -    
Sea Level Pressure  
Sea Level Pressure 29.96 in    
Wind  
Wind Speed 3 mph (NNW)    
Max Wind Speed 15 mph    
Max Gust Speed 21 mph    
Visibility 10 miles    
Events Rain    
T = Trace of Precipitation, MM = Missing Value Source: NWS Daily Summary

Daily Weather History Graph

Daily Weather History Graph

Search for Another Location

Airport:

Trip Planner

Search our weather history database for the weather conditions in past years. The results will help you decide how hot, cold, wet, or windy it might be!

Date:

Astronomy

Aug. 06, 2014 Rise Set
Actual Time 6:17 AM PDT 8:18 PM PDT
Civil Twilight 5:48 AM PDT 8:48 PM PDT
Nautical Twilight 5:12 AM PDT 9:23 PM PDT
Astronomical Twilight 4:33 AM PDT 10:02 PM PDT
Moon 4:41 PM PDT (8/6) 1:58 AM PDT (8/6)
Length of Visible Light 14h 59m
Length of Day
14h 01m
Waxing Gibbous, 78% of the Moon is Illuminated
Aug 6
Waxing Gibbous
Aug 10
Full
Aug 17
Last Quarter
Aug 25
New
Sep 2
First Quarter

Hourly Weather History & Observations

Time (PDT) Temp. Heat Index Dew Point Humidity Pressure Visibility Wind Dir Wind Speed Gust Speed Precip Events Conditions
12:56 AM 68.0 °F - 61.0 °F 78% 30.02 in 10.0 mi Calm Calm - N/A   Mostly Cloudy
1:56 AM 66.9 °F - 62.1 °F 84% 30.00 in 10.0 mi NE 4.6 mph - 0.00 in Rain Light Rain
2:56 AM 68.0 °F - 62.1 °F 81% 30.00 in 10.0 mi NW 4.6 mph - 0.00 in   Mostly Cloudy
3:56 AM 66.0 °F - 62.1 °F 87% 30.01 in 10.0 mi WSW 3.5 mph - N/A   Clear
4:56 AM 66.0 °F - 62.1 °F 87% 30.01 in 10.0 mi Calm Calm - N/A   Clear
5:56 AM 64.9 °F - 62.1 °F 90% 30.02 in 10.0 mi Calm Calm - N/A   Clear
6:56 AM 64.0 °F - 61.0 °F 90% 30.02 in 8.0 mi Calm Calm - N/A   Clear
7:56 AM 64.9 °F - 61.0 °F 87% 30.03 in 7.0 mi Calm Calm - N/A   Clear
8:56 AM 69.1 °F - 62.1 °F 78% 30.03 in 9.0 mi Calm Calm - N/A   Clear
10:56 AM 79.0 °F - 60.1 °F 52% 30.00 in 9.0 mi NNW 4.6 mph - N/A   Clear
11:56 AM 82.9 °F 82.8 °F 59.0 °F 44% 29.99 in 9.0 mi Calm Calm - N/A   Clear
12:56 PM 88.0 °F 87.1 °F 59.0 °F 37% 29.96 in 8.0 mi SE 4.6 mph - N/A   Clear
1:56 PM 91.9 °F 89.5 °F 53.1 °F 27% 29.94 in 9.0 mi Variable 5.8 mph - N/A   Clear
2:56 PM 95.0 °F 92.5 °F 53.1 °F 24% 29.92 in 9.0 mi NNW 12.7 mph 18.4 mph N/A   Clear
3:56 PM 93.9 °F 91.4 °F 53.1 °F 25% 29.90 in 10.0 mi NW 11.5 mph 21.9 mph N/A   Clear
4:56 PM 93.9 °F - 51.1 °F 23% 29.90 in 10.0 mi West 8.1 mph - N/A   Clear
5:56 PM 91.9 °F - 48.9 °F 23% 29.89 in 10.0 mi NNW 12.7 mph - N/A   Clear
6:56 PM 89.1 °F - 51.1 °F 27% 29.90 in 10.0 mi North 11.5 mph - N/A   Clear
7:56 PM 86.0 °F - 48.0 °F 27% 29.90 in 10.0 mi NE 4.6 mph - N/A   Clear
8:56 PM 81.0 °F - 50.0 °F 34% 29.90 in 10.0 mi Calm Calm - N/A   Clear
9:56 PM 78.1 °F - 50.0 °F 37% 29.93 in 10.0 mi Calm Calm - N/A   Clear
10:56 PM 75.0 °F - 51.1 °F 43% 29.93 in 10.0 mi Calm Calm - N/A   Clear
11:56 PM 72.0 °F - 52.0 °F 49% 29.93 in 10.0 mi Calm Calm - N/A   Clear